| time (UTC) | temp F | wind direction | speed knots | gust knots | rain 1hr in | rain 24hr in | rain mn in | humidity % | barometer mb |
| 20260506033719 | 48 | 15 | 0.9 | 3.5 | 0.06 | 0.38 | 0.25 | 97 | 1003.3 |
| 20260506033432 | 48 | 20 | 0.9 | 3.5 | 0.06 | 0.37 | 0.24 | 97 | 1003.4 |
| 20260506032702 | 48 | 289 | 0.9 | 2.6 | 0.06 | 0.37 | 0.24 | 97 | 1003.4 |
| 20260506032202 | 48 | 19 | 0.9 | 3.5 | 0.06 | 0.36 | 0.24 | 97 | 1003.4 |
| 20260506031703 | 48 | 34 | 1.7 | 5.2 | 0.06 | 0.36 | 0.24 | 97 | 1003.3 |
| 20260506031147 | 48 | 347 | 0.9 | 5.2 | 0.06 | 0.35 | 0.23 | 97 | 1003.4 |
| 20260506030632 | 48 | 36 | 0.9 | 4.3 | 0.06 | 0.35 | 0.22 | 97 | 1003.4 |
| 20260506030130 | 48 | 13 | 1.7 | 4.3 | 0.06 | 0.35 | 0.22 | 97 | 1003.5 |
| 20260506025631 | 48 | 49 | 1.7 | 4.3 | 0.06 | 0.34 | 0.21 | 97 | 1003.6 |
| 20260506025105 | 48 | 7 | 1.7 | 5.2 | 0.06 | 0.34 | 0.21 | 97 | 1003.5 |
| 20260506024603 | 49 | 46 | 1.7 | 5.2 | 0.06 | 0.33 | 0.20 | 97 | 1003.6 |
| 20260506024032 | 49 | 0 | 1.7 | 4.3 | 0.05 | 0.32 | 0.20 | 97 | 1003.6 |
| 20260506023532 | 49 | 34 | 0.9 | 4.3 | 0.06 | 0.32 | 0.19 | 97 | 1003.6 |
| 20260506023030 | 49 | 21 | 0.9 | 2.6 | 0.05 | 0.31 | 0.19 | 97 | 1003.7 |
| 20260506022752 | 49 | 0 | 0.9 | 4.3 | 0.05 | 0.31 | 0.18 | 97 | 1003.7 |
| 20260506022032 | 49 | 1 | 1.7 | 4.3 | 0.05 | 0.31 | 0.18 | 97 | 1003.7 |
| 20260506021529 | 49 | 8 | 1.7 | 4.3 | 0.06 | 0.31 | 0.18 | 97 | 1003.7 |
| 20260506021031 | 49 | 158 | 0.9 | 4.3 | 0.05 | 0.30 | 0.17 | 97 | 1003.7 |
| 20260506020531 | 49 | 337 | 1.7 | 4.3 | 0.05 | 0.29 | 0.17 | 97 | 1003.7 |
| 20260506020005 | 49 | 323 | 1.7 | 3.5 | 0.05 | 0.29 | 0.17 | 97 | 1003.7 |
| 20260506015433 | 49 | 359 | 1.7 | 5.2 | 0.04 | 0.28 | 0.16 | 97 | 1003.7 |
| 20260506015416 | 49 | 340 | 1.7 | 4.3 | 0.04 | 0.28 | 0.15 | 97 | 1003.8 |
| 20260506014403 | 49 | 22 | 1.7 | 4.3 | 0.04 | 0.28 | 0.15 | 97 | 1003.7 |
| 20260506013902 | 49 | 359 | 0.9 | 4.3 | 0.04 | 0.28 | 0.14 | 97 | 1003.8 |
| 20260506013408 | 49 | 13 | 1.7 | 4.3 | 0.04 | 0.27 | 0.14 | 97 | 1003.8 |
| 20260506012903 | 49 | 356 | 1.7 | 4.3 | 0.03 | 0.26 | 0.13 | 97 | 1003.8 |
| 20260506012402 | 49 | 1 | 1.7 | 4.3 | 0.04 | 0.26 | 0.13 | 97 | 1003.8 |
| 20260506011831 | 49 | 326 | 1.7 | 3.5 | 0.04 | 0.26 | 0.13 | 97 | 1003.9 |
| 20260506011332 | 49 | 359 | 1.7 | 4.3 | 0.04 | 0.25 | 0.13 | 97 | 1003.9 |
| 20260506010831 | 49 | 19 | 1.7 | 4.3 | 0.05 | 0.25 | 0.13 | 97 | 1003.9 |
| 20260506010332 | 49 | 1 | 2.6 | 5.2 | 0.04 | 0.24 | 0.12 | 97 | 1003.9 |
| 20260506010248 | 49 | 58 | 1.7 | 5.2 | 0.05 | 0.24 | 0.12 | 97 | 1004.0 |
| 20260506005305 | 49 | 0 | 1.7 | 5.2 | 0.05 | 0.24 | 0.11 | 97 | 1004.0 |
| 20260506004802 | 49 | 20 | 1.7 | 5.2 | 0.04 | 0.24 | 0.11 | 97 | 1004.0 |
| 20260506004302 | 49 | 15 | 1.7 | 5.2 | 0.04 | 0.24 | 0.11 | 97 | 1004.0 |
| 20260506003804 | 49 | 345 | 1.7 | 4.3 | 0.04 | 0.23 | 0.10 | 97 | 1004.1 |
| 20260506003232 | 49 | 8 | 0.9 | 4.3 | 0.04 | 0.23 | 0.10 | 97 | 1004.1 |
| 20260506002727 | 49 | 1 | 1.7 | 4.3 | 0.04 | 0.23 | 0.09 | 97 | 1004.2 |
| 20260506002204 | 49 | 330 | 1.7 | 5.2 | 0.04 | 0.22 | 0.09 | 97 | 1004.3 |
| 20260506001642 | 49 | 19 | 1.7 | 5.2 | 0.03 | 0.21 | 0.09 | 97 | 1004.3 |
| 20260506001142 | 49 | 60 | 1.7 | 4.3 | 0.03 | 0.21 | 0.08 | 97 | 1004.4 |
| 20260506000634 | 50 | 356 | 1.7 | 4.3 | 0.03 | 0.20 | 0.08 | 97 | 1004.4 |
| 20260506000131 | 50 | 58 | 1.7 | 4.3 | 0.03 | 0.20 | 0.07 | 97 | 1004.5 |
| 20260505235602 | 50 | 8 | 1.7 | 5.2 | 0.03 | 0.20 | 0.07 | 97 | 1004.5 |
| 20260505235102 | 50 | 20 | 1.7 | 5.2 | 0.03 | 0.20 | 0.07 | 97 | 1004.5 |
| 20260505234603 | 50 | 30 | 1.7 | 5.2 | 0.04 | 0.20 | 0.07 | 97 | 1004.5 |
| 20260505234102 | 50 | 9 | 0.9 | 5.2 | 0.04 | 0.20 | 0.06 | 97 | 1004.6 |
| 20260505233602 | 50 | 359 | 0.9 | 4.3 | 0.04 | 0.19 | 0.06 | 97 | 1004.6 |
| 20260505233102 | 50 | 37 | 0.9 | 4.3 | 0.04 | 0.19 | 0.06 | 97 | 1004.6 |
| 20260505232604 | 50 | 35 | 1.7 | 6.1 | 0.04 | 0.18 | 0.06 | 97 | 1004.6 |
| 20260505232032 | 50 | 13 | 1.7 | 6.1 | 0.04 | 0.18 | 0.06 | 97 | 1004.7 |
| 20260505231532 | 50 | 30 | 1.7 | 7.8 | 0.05 | 0.18 | 0.06 | 97 | 1004.7 |
| 20260505231259 | 50 | 20 | 1.7 | 7.8 | 0.05 | 0.18 | 0.06 | 97 | 1004.7 |
| 20260505230530 | 50 | 348 | 0.9 | 4.3 | 0.05 | 0.17 | 0.05 | 97 | 1004.7 |
| 20260505230032 | 50 | 1 | 1.7 | 4.3 | 0.05 | 0.17 | 0.04 | 97 | 1004.7 |
| 20260505225754 | 50 | 126 | 1.7 | 4.3 | 0.04 | 0.17 | 0.04 | 97 | 1004.7 |
| 20260505225031 | 50 | 6 | 0.9 | 4.3 | 0.05 | 0.17 | 0.04 | 97 | 1004.8 |
| 20260505224503 | 50 | 347 | 1.7 | 4.3 | 0.04 | 0.16 | 0.03 | 97 | 1004.8 |
| 20260505224002 | 51 | 2 | 1.7 | 4.3 | 0.05 | 0.16 | 0.02 | 97 | 1004.7 |
| 20260505223430 | 51 | 43 | 0.9 | 1.7 | 0.04 | 0.15 | 0.02 | 97 | 1004.7 |
| 20260505222929 | 51 | 359 | 1.7 | 5.2 | 0.05 | 0.15 | 0.02 | 97 | 1004.8 |
| 20260505222422 | 51 | 55 | 2.6 | 5.2 | 0.04 | 0.14 | 0.02 | 97 | 1004.8 |
| 20260505221915 | 51 | 44 | 1.7 | 4.3 | 0.04 | 0.13 | 0.01 | 97 | 1004.8 |
| 20260505221404 | 51 | 91 | 0.9 | 4.3 | 0.05 | 0.13 | 0.01 | 97 | 1004.9 |
| 20260505220832 | 51 | 352 | 0.9 | 4.3 | 0.05 | 0.13 | 0.00 | 97 | 1004.8 |
| 20260505220328 | 51 | 0 | 0.9 | 4.3 | 0.05 | 0.13 | 0.00 | 97 | 1004.9 |
| 20260505215802 | 51 | 0 | 0.9 | 4.3 | 0.05 | 0.13 | 0.13 | 96 | 1004.9 |
| 20260505215305 | 51 | 1 | 0.9 | 3.5 | 0.05 | 0.12 | 0.12 | 96 | 1004.9 |
| 20260505214804 | 51 | 97 | 0.9 | 3.5 | 0.05 | 0.12 | 0.12 | 96 | 1004.9 |
| 20260505214303 | 50 | 0 | 0.9 | 3.5 | 0.06 | 0.12 | 0.11 | 96 | 1005.0 |
| 20260505213803 | 51 | 77 | 0.9 | 3.5 | 0.06 | 0.11 | 0.11 | 96 | 1005.0 |
| 20260505213525 | 51 | 344 | 0.9 | 5.2 | 0.06 | 0.11 | 0.11 | 96 | 1005.0 |
| 20260505212813 | 50 | 18 | 0.9 | 5.2 | 0.06 | 0.10 | 0.10 | 96 | 1005.0 |
| 20260505212238 | 51 | 357 | 0.9 | 3.5 | 0.05 | 0.09 | 0.09 | 96 | 1005.1 |
| 20260505211737 | 51 | 19 | 0.9 | 5.2 | 0.06 | 0.09 | 0.09 | 96 | 1005.1 |
| 20260505211207 | 51 | 1 | 0.9 | 5.2 | 0.05 | 0.09 | 0.09 | 96 | 1005.1 |
| 20260505210926 | 51 | 13 | 0.9 | 5.2 | 0.05 | 0.09 | 0.09 | 96 | 1005.2 |
| 20260505210203 | 51 | 342 | 0.9 | 5.2 | 0.05 | 0.08 | 0.08 | 96 | 1005.2 |
| 20260505205702 | 51 | 359 | 0.9 | 4.3 | 0.05 | 0.08 | 0.08 | 96 | 1005.2 |
| 20260505205208 | 51 | 102 | 0.9 | 4.3 | 0.04 | 0.07 | 0.07 | 96 | 1005.3 |
| 20260505204928 | 51 | 1 | 0.9 | 2.6 | 0.03 | 0.06 | 0.06 | 96 | 1005.3 |
| 20260505204204 | 51 | 359 | 0.9 | 4.3 | 0.03 | 0.06 | 0.06 | 96 | 1005.3 |
| 20260505203633 | 51 | 41 | 0.9 | 2.6 | 0.03 | 0.06 | 0.06 | 96 | 1005.3 |
| 20260505203131 | 51 | 354 | 0.9 | 5.2 | 0.03 | 0.06 | 0.05 | 96 | 1005.3 |
| 20260505202630 | 51 | 1 | 1.7 | 3.5 | 0.03 | 0.05 | 0.05 | 96 | 1005.3 |
| 20260505202131 | 51 | 72 | 1.7 | 7.0 | 0.02 | 0.04 | 0.04 | 96 | 1005.3 |
| 20260505201603 | 51 | 116 | 0.9 | 7.0 | 0.02 | 0.04 | 0.04 | 96 | 1005.3 |
| 20260505201030 | 51 | 83 | 0.9 | 2.6 | 0.02 | 0.04 | 0.04 | 96 | 1005.2 |
| 20260505200531 | 51 | 66 | 0.9 | 3.5 | 0.03 | 0.04 | 0.04 | 96 | 1005.2 |
| 20260505200004 | 51 | 350 | 0.9 | 2.6 | 0.02 | 0.03 | 0.03 | 96 | 1005.2 |
| 20260505195504 | 51 | 342 | 0.9 | 3.5 | 0.02 | 0.03 | 0.03 | 96 | 1005.2 |
| 20260505195002 | 51 | 349 | 0.9 | 3.5 | 0.02 | 0.03 | 0.03 | 96 | 1005.2 |
| 20260505194431 | 51 | 20 | 1.7 | 3.5 | 0.02 | 0.03 | 0.03 | 96 | 1005.2 |
| 20260505193932 | 51 | 359 | 1.7 | 4.3 | 0.02 | 0.02 | 0.02 | 95 | 1005.2 |
| 20260505193430 | 51 | 106 | 1.7 | 4.3 | 0.02 | 0.02 | 0.02 | 95 | 1005.2 |
| 20260505192929 | 51 | 349 | 1.7 | 6.1 | 0.02 | 0.02 | 0.02 | 95 | 1005.2 |
| 20260505192432 | 51 | 359 | 1.7 | 6.1 | 0.01 | 0.02 | 0.02 | 95 | 1005.1 |
| 20260505191932 | 51 | 19 | 0.9 | 5.2 | 0.01 | 0.02 | 0.02 | 95 | 1005.1 |
| 20260505191404 | 51 | 70 | 0.9 | 4.3 | 0.01 | 0.02 | 0.02 | 95 | 1005.1 |
| 20260505190904 | 51 | 308 | 1.7 | 3.5 | 0.00 | 0.01 | 0.01 | 95 | 1005.1 |
| 20260505190402 | 51 | 17 | 1.7 | 5.2 | 0.00 | 0.01 | 0.01 | 95 | 1005.1 |
| 20260505185903 | 51 | 5 | 1.7 | 5.2 | 0.00 | 0.01 | 0.01 | 95 | 1005.1 |
| 20260505185403 | 51 | 357 | 1.7 | 5.2 | 0.00 | 0.01 | 0.01 | 94 | 1005.0 |
| 20260505185123 | 52 | 343 | 1.7 | 4.3 | 0.00 | 0.01 | 0.01 | 94 | 1005.0 |
| 20260505184402 | 52 | 1 | 1.7 | 3.5 | 0.00 | 0.01 | 0.01 | 94 | 1005.0 |
| 20260505183902 | 52 | 1 | 1.7 | 5.2 | 0.00 | 0.01 | 0.01 | 94 | 1005.0 |
| 20260505183409 | 52 | 75 | 1.7 | 5.2 | 0.00 | 0.01 | 0.01 | 94 | 1005.0 |
| 20260505182837 | 52 | 4 | 1.7 | 6.1 | 0.00 | 0.01 | 0.01 | 94 | 1004.9 |
| 20260505182332 | 52 | 30 | 1.7 | 6.1 | 0.00 | 0.01 | 0.01 | 94 | 1004.9 |
| 20260505181830 | 52 | 37 | 1.7 | 4.3 | 0.00 | 0.01 | 0.01 | 94 | 1005.0 |
| 20260505181330 | 52 | 1 | 0.9 | 3.5 | 0.00 | 0.01 | 0.01 | 94 | 1005.0 |
| 20260505180832 | 52 | 50 | 0.9 | 3.5 | 0.00 | 0.01 | 0.01 | 94 | 1005.0 |
| 20260505180819 | 52 | 11 | 0.9 | 3.5 | 0.00 | 0.01 | 0.01 | 94 | 1005.1 |
| 20260505175826 | 52 | 76 | 0.9 | 3.5 | 0.00 | 0.01 | 0.01 | 94 | 1005.1 |
| 20260505175323 | 52 | 38 | 1.7 | 3.5 | 0.00 | 0.01 | 0.01 | 94 | 1005.1 |
| 20260505174820 | 52 | 83 | 1.7 | 3.5 | 0.00 | 0.01 | 0.01 | 93 | 1005.1 |
| 20260505174526 | 52 | 54 | 1.7 | 4.3 | 0.00 | 0.01 | 0.01 | 93 | 1005.1 |
| 20260505173803 | 52 | 51 | 1.7 | 5.2 | 0.00 | 0.01 | 0.01 | 93 | 1005.2 |
| 20260505173232 | 52 | 20 | 0.9 | 3.5 | 0.00 | 0.01 | 0.01 | 93 | 1005.2 |
| 20260505172951 | 52 | 32 | 0.9 | 3.5 | 0.00 | 0.01 | 0.01 | 93 | 1005.2 |
| 20260505172205 | 52 | 53 | 1.7 | 4.3 | 0.00 | 0.01 | 0.01 | 93 | 1005.2 |
| 20260505171703 | 52 | 75 | 1.7 | 4.3 | 0.00 | 0.01 | 0.01 | 93 | 1005.2 |
| 20260505171203 | 52 | 356 | 1.7 | 5.2 | 0.00 | 0.01 | 0.01 | 93 | 1005.2 |
| 20260505170704 | 52 | 15 | 1.7 | 5.2 | 0.00 | 0.01 | 0.01 | 93 | 1005.2 |
| 20260505170138 | 52 | 41 | 1.7 | 5.2 | 0.00 | 0.02 | 0.01 | 93 | 1005.2 |
| 20260505165634 | 52 | 7 | 1.7 | 5.2 | 0.00 | 0.02 | 0.01 | 93 | 1005.2 |
| 20260505165133 | 52 | 1 | 1.7 | 5.2 | 0.00 | 0.02 | 0.01 | 92 | 1005.2 |
| 20260505164632 | 52 | 27 | 1.7 | 6.1 | 0.00 | 0.02 | 0.01 | 92 | 1005.2 |
| 20260505164103 | 53 | 8 | 1.7 | 6.1 | 0.00 | 0.02 | 0.01 | 92 | 1005.2 |
| 20260505164041 | 53 | 341 | 1.7 | 5.2 | 0.00 | 0.02 | 0.01 | 92 | 1005.3 |
| 20260505163104 | 53 | 352 | 1.7 | 5.2 | 0.00 | 0.02 | 0.01 | 92 | 1005.2 |
| 20260505162533 | 53 | 60 | 0.9 | 2.6 | 0.00 | 0.02 | 0.01 | 92 | 1005.3 |
| 20260505162027 | 53 | 17 | 0.9 | 5.2 | 0.00 | 0.02 | 0.01 | 92 | 1005.3 |
| 20260505161505 | 53 | 88 | 1.7 | 5.2 | 0.00 | 0.02 | 0.01 | 92 | 1005.3 |
| 20260505161004 | 53 | 101 | 0.9 | 6.1 | 0.00 | 0.02 | 0.01 | 92 | 1005.3 |
| 20260505160652 | 53 | 67 | 1.7 | 6.1 | 0.00 | 0.02 | 0.01 | 92 | 1005.3 |
| 20260505160146 | 53 | 82 | 2.6 | 7.8 | 0.00 | 0.02 | 0.01 | 92 | 1005.2 |
| 20260505152832 | 53 | 17 | 1.7 | 6.1 | 0.00 | 0.05 | 0.01 | 91 | 1005.3 |
| 20260505152331 | 53 | 1 | 1.7 | 6.1 | 0.00 | 0.05 | 0.01 | 91 | 1005.3 |
| 20260505151830 | 53 | 359 | 1.7 | 4.3 | 0.00 | 0.05 | 0.01 | 91 | 1005.4 |
| 20260505151330 | 53 | 333 | 1.7 | 6.1 | 0.00 | 0.06 | 0.01 | 91 | 1005.4 |
| 20260505150832 | 53 | 341 | 1.7 | 6.1 | 0.00 | 0.06 | 0.01 | 91 | 1005.5 |
| 20260505150330 | 53 | 68 | 2.6 | 7.0 | 0.00 | 0.06 | 0.01 | 91 | 1005.6 |
| 20260505140459 | 54 | 1 | 2.6 | 5.2 | 0.00 | 0.06 | 0.01 | 91 | 1005.6 |
| 20260505124402 | 55 | 329 | 1.7 | 5.2 | 0.00 | 0.06 | 0.01 | 91 | 1006.2 |
| 20260505123904 | 55 | 28 | 1.7 | 6.1 | 0.00 | 0.06 | 0.01 | 92 | 1006.2 |
| 20260505123403 | 55 | 32 | 1.7 | 6.1 | 0.00 | 0.06 | 0.01 | 92 | 1006.1 |
| 20260505122830 | 55 | 0 | 1.7 | 7.0 | 0.00 | 0.06 | 0.01 | 92 | 1006.1 |
| 20260505122330 | 55 | 48 | 0.9 | 7.0 | 0.00 | 0.06 | 0.01 | 93 | 1006.2 |
| 20260505121827 | 54 | 356 | 2.6 | 7.8 | 0.00 | 0.06 | 0.01 | 93 | 1006.2 |
| 20260505121326 | 54 | 350 | 2.6 | 7.8 | 0.00 | 0.06 | 0.01 | 93 | 1006.2 |
| 20260505120805 | 54 | 359 | 2.6 | 6.1 | 0.00 | 0.06 | 0.01 | 93 | 1006.2 |
| 20260505120304 | 54 | 0 | 2.6 | 7.0 | 0.00 | 0.06 | 0.01 | 93 | 1006.3 |
| 20260505115732 | 54 | 1 | 2.6 | 7.0 | 0.00 | 0.06 | 0.01 | 93 | 1006.2 |
| 20260505115232 | 54 | 4 | 2.6 | 6.1 | 0.00 | 0.06 | 0.01 | 93 | 1006.3 |
| 20260505114730 | 54 | 77 | 2.6 | 6.1 | 0.00 | 0.06 | 0.01 | 93 | 1006.3 |
| 20260505114502 | 54 | 359 | 1.7 | 5.2 | 0.00 | 0.06 | 0.01 | 93 | 1006.3 |
| 20260505113926 | 54 | 90 | 1.7 | 6.1 | 0.00 | 0.06 | 0.01 | 94 | 1006.4 |
| 20260505113131 | 54 | 324 | 2.6 | 7.8 | 0.00 | 0.06 | 0.01 | 94 | 1006.4 |
| 20260505112852 | 54 | 0 | 2.6 | 7.8 | 0.00 | 0.06 | 0.01 | 94 | 1006.3 |
| 20260505112329 | 54 | 6 | 2.6 | 6.1 | 0.00 | 0.06 | 0.01 | 94 | 1006.3 |
| 20260505111532 | 54 | 43 | 2.6 | 7.0 | 0.00 | 0.06 | 0.01 | 94 | 1006.3 |
| 20260505111031 | 54 | 85 | 2.6 | 7.0 | 0.00 | 0.06 | 0.01 | 94 | 1006.3 |
| 20260505110532 | 54 | 37 | 1.7 | 5.2 | 0.00 | 0.06 | 0.01 | 94 | 1006.4 |
| 20260505101902 | 54 | 76 | 2.6 | 7.0 | 0.00 | 0.06 | 0.01 | 96 | 1006.6 |
| 20260505101333 | 54 | 359 | 2.6 | 7.0 | 0.00 | 0.06 | 0.01 | 96 | 1006.6 |
| 20260505100831 | 54 | 1 | 2.6 | 7.0 | 0.00 | 0.06 | 0.01 | 96 | 1006.6 |
| 20260505100313 | 54 | 335 | 2.6 | 8.7 | 0.00 | 0.06 | 0.01 | 96 | 1006.6 |
| 20260505095803 | 54 | 70 | 2.6 | 8.7 | 0.00 | 0.06 | 0.01 | 96 | 1006.6 |
| 20260505095753 | 54 | 91 | 2.6 | 7.8 | 0.00 | 0.06 | 0.01 | 96 | 1006.6 |
| 20260505094955 | 54 | 345 | 2.6 | 7.8 | 0.00 | 0.06 | 0.01 | 95 | 1006.6 |
| 20260505094231 | 54 | 316 | 1.7 | 6.1 | 0.00 | 0.06 | 0.01 | 96 | 1006.6 |
| 20260505093703 | 54 | 6 | 1.7 | 6.1 | 0.00 | 0.06 | 0.01 | 96 | 1006.6 |
| 20260505093202 | 54 | 25 | 1.7 | 6.1 | 0.00 | 0.06 | 0.01 | 96 | 1006.6 |
| 20260505092702 | 55 | 1 | 1.7 | 6.1 | 0.00 | 0.06 | 0.01 | 96 | 1006.6 |
| 20260505092202 | 55 | 352 | 1.7 | 7.0 | 0.00 | 0.06 | 0.01 | 96 | 1006.6 |
| 20260505091646 | 55 | 62 | 2.6 | 7.0 | 0.00 | 0.06 | 0.01 | 95 | 1006.6 |
| 20260505091132 | 55 | 359 | 1.7 | 6.1 | 0.00 | 0.06 | 0.01 | 95 | 1006.6 |
| 20260505090631 | 55 | 14 | 1.7 | 6.1 | 0.00 | 0.06 | 0.01 | 95 | 1006.6 |
| 20260505090326 | 55 | 42 | 2.6 | 5.2 | 0.00 | 0.06 | 0.01 | 95 | 1006.5 |
| 20260505085602 | 56 | 136 | 1.7 | 6.1 | 0.00 | 0.06 | 0.01 | 95 | 1006.6 |
| 20260505085103 | 56 | 51 | 1.7 | 6.1 | 0.00 | 0.06 | 0.01 | 95 | 1006.6 |
| 20260505084532 | 56 | 238 | 1.7 | 6.1 | 0.00 | 0.06 | 0.01 | 95 | 1006.5 |
| 20260505084242 | 56 | 4 | 2.6 | 6.1 | 0.00 | 0.06 | 0.01 | 94 | 1006.5 |
| 20260505083732 | 57 | 10 | 2.6 | 6.1 | 0.00 | 0.06 | 0.01 | 94 | 1006.5 |
| 20260505083002 | 57 | 1 | 2.6 | 6.1 | 0.00 | 0.06 | 0.01 | 94 | 1006.5 |
| 20260505082433 | 58 | 304 | 0.9 | 4.3 | 0.00 | 0.06 | 0.01 | 94 | 1006.4 |
| 20260505081931 | 58 | 127 | 0.9 | 2.6 | 0.00 | 0.06 | 0.01 | 94 | 1006.4 |
| 20260505081701 | 57 | 130 | 0.9 | 3.5 | 0.00 | 0.06 | 0.01 | 94 | 1006.4 |
| 20260505080931 | 57 | 156 | 0.9 | 3.5 | 0.00 | 0.06 | 0.01 | 94 | 1006.4 |
| 20260505080432 | 57 | 129 | 0.9 | 2.6 | 0.00 | 0.06 | 0.01 | 95 | 1006.5 |
| 20260505075904 | 57 | 150 | 0.9 | 2.6 | 0.00 | 0.06 | 0.01 | 96 | 1006.4 |
| 20260505075402 | 57 | 83 | 0.9 | 2.6 | 0.00 | 0.06 | 0.01 | 96 | 1006.4 |
| 20260505074903 | 57 | 110 | 0.9 | 1.7 | 0.00 | 0.06 | 0.01 | 97 | 1006.4 |
| 20260505074332 | 57 | 41 | 0.0 | 2.6 | 0.00 | 0.06 | 0.01 | 97 | 1006.4 |
| 20260505074056 | 57 | 81 | 0.0 | 1.7 | 0.00 | 0.06 | 0.01 | 97 | 1006.4 |
| 20260505073332 | 57 | 81 | 0.0 | 1.7 | 0.00 | 0.06 | 0.01 | 97 | 1006.5 |
| 20260505072832 | 57 | 81 | 0.0 | 1.7 | 0.00 | 0.06 | 0.01 | 98 | 1006.5 |
| 20260505072330 | 57 | 81 | 0.0 | 1.7 | 0.00 | 0.06 | 0.01 | 98 | 1006.4 |
| 20260505072048 | 57 | 81 | 0.0 | 1.7 | 0.00 | 0.06 | 0.01 | 98 | 1006.5 |
| 20260505071329 | 57 | 81 | 0.0 | 1.7 | 0.00 | 0.06 | 0.01 | 98 | 1006.5 |
| 20260505070826 | 56 | 81 | 0.9 | 1.7 | 0.00 | 0.06 | 0.01 | 98 | 1006.5 |
| 20260505070538 | 56 | 106 | 0.0 | 1.7 | 0.00 | 0.06 | 0.01 | 98 | 1006.5 |
| 20260505065814 | 56 | 90 | 0.0 | 1.7 | 0.00 | 0.06 | 0.01 | 98 | 1006.6 |
| 20260505065313 | 56 | 90 | 0.0 | 2.6 | 0.00 | 0.06 | 0.01 | 98 | 1006.6 |
| 20260505065300 | 56 | 328 | 0.0 | 2.6 | 0.00 | 0.06 | 0.01 | 98 | 1006.7 |
| 20260505064303 | 56 | 31 | 0.0 | 1.7 | 0.00 | 0.06 | 0.01 | 98 | 1006.7 |
| 20260505063731 | 56 | 31 | 0.0 | 1.7 | 0.00 | 0.06 | 0.01 | 98 | 1006.7 |
| 20260505063230 | 56 | 31 | 0.0 | 1.7 | 0.00 | 0.06 | 0.01 | 98 | 1006.7 |
| 20260505062956 | 56 | 31 | 0.9 | 1.7 | 0.00 | 0.06 | 0.01 | 98 | 1006.7 |
| 20260505062232 | 56 | 142 | 0.0 | 0.9 | 0.01 | 0.06 | 0.01 | 98 | 1006.7 |
| 20260505061730 | 56 | 185 | 0.0 | 0.9 | 0.01 | 0.06 | 0.01 | 98 | 1006.7 |
| 20260505061448 | 56 | 185 | 0.0 | 0.9 | 0.01 | 0.06 | 0.01 | 98 | 1006.8 |
| 20260505060954 | 56 | 185 | 0.0 | 0.9 | 0.01 | 0.06 | 0.01 | 98 | 1006.9 |
| 20260505060225 | 56 | 185 | 0.0 | 0.0 | 0.01 | 0.06 | 0.01 | 98 | 1006.9 |
| 20260505055722 | 56 | 185 | 0.0 | 0.0 | 0.01 | 0.06 | 0.01 | 98 | 1006.9 |
| 20260505055204 | 56 | 185 | 0.0 | 0.9 | 0.01 | 0.06 | 0.01 | 98 | 1006.9 |
| 20260505054910 | 56 | 185 | 0.0 | 0.9 | 0.01 | 0.06 | 0.01 | 98 | 1006.8 |
| 20260505054131 | 55 | 185 | 0.0 | 0.0 | 0.01 | 0.06 | 0.01 | 98 | 1006.8 |
| 20260505053632 | 55 | 185 | 0.0 | 0.0 | 0.01 | 0.06 | 0.01 | 98 | 1006.7 |
| 20260505053133 | 55 | 185 | 0.0 | 0.0 | 0.01 | 0.06 | 0.01 | 98 | 1006.7 |
| 20260505052630 | 55 | 185 | 0.0 | 0.0 | 0.01 | 0.06 | 0.01 | 98 | 1006.8 |
| 20260505052131 | 55 | 185 | 0.0 | 0.0 | 0.00 | 0.06 | 0.00 | 98 | 1006.8 |
| 20260505051827 | 55 | 185 | 0.0 | 0.0 | 0.00 | 0.06 | 0.00 | 98 | 1006.7 |
| 20260505051104 | 55 | 185 | 0.0 | 0.0 | 0.00 | 0.06 | 0.00 | 98 | 1006.7 |
| 20260505050532 | 55 | 185 | 0.0 | 0.0 | 0.00 | 0.06 | 0.00 | 98 | 1006.7 |
| 20260505050254 | 55 | 185 | 0.0 | 0.0 | 0.00 | 0.06 | 0.00 | 98 | 1006.7 |
| 20260505041429 | 54 | 185 | 0.0 | 0.0 | 0.00 | 0.06 | 0.00 | 98 | 1006.8 |
| 20260505040930 | 55 | 185 | 0.0 | 0.0 | 0.00 | 0.06 | 0.00 | 98 | 1006.8 |
| 20260505040428 | 54 | 185 | 0.0 | 0.0 | 0.00 | 0.06 | 0.00 | 98 | 1006.8 |
| 20260505035930 | 54 | 185 | 0.0 | 0.0 | 0.00 | 0.06 | 0.00 | 98 | 1006.8 |
| 20260505035430 | 54 | 185 | 0.0 | 0.0 | 0.00 | 0.06 | 0.00 | 98 | 1006.8 |
| 20260505034930 | 54 | 185 | 0.0 | 0.0 | 0.00 | 0.06 | 0.00 | 98 | 1006.8 |
| 20260505034430 | 54 | 185 | 0.0 | 0.0 | 0.00 | 0.06 | 0.00 | 98 | 1006.8 |